EDT,Max TemperatureF,Mean TemperatureF,Min TemperatureF,Max Dew PointF,MeanDew PointF,Min DewpointF,Max Humidity, Mean Humidity, Min Humidity, Max Sea Level PressureIn, Mean Sea Level PressureIn, Min Sea Level PressureIn, Max VisibilityMiles, Mean VisibilityMiles, Min VisibilityMiles, Max Wind SpeedMPH, Mean Wind SpeedMPH, Max Gust SpeedMPH,PrecipitationIn, CloudCover, Events, WindDirDegrees
2013-10-1,75,63,51,63,57,50,100,84,53,29.87,29.79,29.70,10,10,2,16,8,30,0.00,3,,192
2013-10-2,69,58,48,59,43,34,100,63,28,30.07,29.98,29.81,10,9,0,20,7,30,0.00,1,,263
2013-10-3,57,52,46,54,50,45,100,91,72,30.07,30.03,29.97,10,10,7,16,5,20,0.21,5,,80
2013-10-4,60,56,53,52,50,46,94,79,63,30.16,30.07,29.98,10,10,10,18,9,23,0.03,8,,61
2013-10-5,55,50,44,48,46,41,100,89,72,30.16,30.09,29.94,10,10,8,21,11,25,0.72,8,,74
2013-10-6,60,53,46,61,54,46,100,98,93,29.94,29.70,29.57,10,7,0,23,14,33,0.41,7,,126
2013-10-7,53,48,42,54,46,41,100,93,76,30.02,29.70,29.52,10,9,0,25,10,33,0.02,7,,283
2013-10-8,64,52,41,52,44,39,100,78,42,30.19,30.14,30.02,10,10,10,15,7,21,0.00,0,,175
2013-10-9,71,58,46,54,50,46,100,78,50,30.22,30.19,30.15,10,10,3,13,7,18,0.00,0,,166
2013-10-10,69,58,46,54,48,43,100,77,38,30.21,30.18,30.15,10,8,0,14,5,17,0.00,1,,138
2013-10-11,66,58,48,54,51,46,100,85,49,30.18,30.13,30.08,10,8,1,14,8,22,0.00,4,,116
2013-10-12,69,58,46,61,53,46,100,84,53,30.08,30.02,29.95,10,9,1,21,10,25,0.08,2,,129
2013-10-13,60,50,37,61,46,37,100,85,58,30.38,30.21,29.98,10,10,6,16,7,21,0.00,3,,275
2013-10-14,57,46,35,45,38,34,100,80,44,30.44,30.38,30.31,10,10,10,10,4,,0.00,1,,291
2013-10-15,57,47,37,54,46,37,100,92,72,30.30,30.03,29.72,10,10,2,25,6,32,0.33,5,,112
2013-10-16,55,50,46,55,51,45,100,97,93,29.81,29.68,29.62,10,8,2,17,8,26,0.15,8,,235
2013-10-17,50,44,37,46,40,37,100,87,62,29.84,29.79,29.73,10,10,6,12,6,,0.01,6,,277
2013-10-18,53,44,35,46,41,34,100,89,62,29.80,29.75,29.72,10,10,8,10,4,16,0.08,6,,251
2013-10-19,50,42,35,43,38,30,100,86,50,29.78,29.70,29.65,10,10,10,14,5,22,0.00,4,,269
2013-10-20,51,40,30,43,38,28,100,87,58,29.79,29.75,29.70,10,10,2,14,4,20,0.01,4,,154
2013-10-21,46,39,30,46,39,28,100,89,66,29.70,29.65,29.58,10,10,5,16,10,21,0.19,7,,234
2013-10-22,42,34,26,37,32,27,100,93,70,29.83,29.70,29.60,10,9,3,22,9,30,0.09,5,,272
2013-10-23,39,34,30,36,32,27,100,92,75,29.82,29.79,29.76,10,9,1,18,8,31,0.00,6,,267
2013-10-24,42,38,33,39,34,32,100,93,76,30.07,29.92,29.78,10,8,2,14,9,21,0.20,7,,278
2013-10-25,44,37,30,39,32,27,100,84,49,30.17,30.04,29.70,10,10,3,13,6,23,0.18,7,,229
2013-10-26,44,38,33,43,38,34,100,94,81,29.90,29.65,29.49,10,9,4,22,12,32,0.37,7,,270
2013-10-27,42,37,32,39,35,30,100,93,70,29.96,29.88,29.82,10,10,2,21,4,28,0.05,7,,244
2013-10-28,37,30,24,37,26,21,100,81,56,30.46,30.33,29.97,10,10,10,15,9,20,0.00,2,,338
2013-10-29,37,30,23,32,26,21,100,85,65,30.47,30.39,30.22,10,10,5,8,3,,0.00,4,,155
2013-10-30,46,40,33,45,39,32,100,94,76,30.21,30.09,29.87,10,10,8,14,5,,0.01,8,,128
2013-10-31,53,50,46,54,49,45,100,98,93,29.86,29.46,29.02,10,4,0,13,8,17,1.19,8,,111